�N����,����,�~����,�C��,���x,�C��,����,���ϕ���,�ő�u�ԕ���,�ő厞����,���˗�,�I�_���x,�n�����x,�ő啗���N��,DTYPE
"18/05/15","00:10",0.0,15.5,75.1,1006.9,332.9,3.2,5.5,328.4,0.00,11.2,17.5,"00:06:00",1
"18/05/15","00:20",0.0,15.8,74.7,1007.1,333.2,3.5,5.4,346.5,0.00,11.4,17.2,"00:12:00",1
"18/05/15","00:30",0.0,15.8,73.9,1006.9,327.1,3.4,4.8,334.6,0.00,11.2,17.2,"00:21:44",1
"18/05/15","00:40",0.0,15.7,73.7,1006.7,331.6,3.2,6.4,332.8,0.00,11.1,17.2,"00:32:16",1
"18/05/15","00:50",0.0,15.4,73.8,1006.7,330.1,2.6,4.3,328.3,0.00,10.8,17.4,"00:47:12",1
"18/05/15","01:00",0.0,15.0,74.5,1006.7,340.1,1.7,4.1,321.0,0.00,10.5,17.3,"00:51:20",1
"18/05/15","01:10",0.0,14.6,74.9,1006.9,349.0,1.2,2.2,324.5,0.00,10.2,17.2,"01:07:20",1
"18/05/15","01:20",0.0,13.7,78.8,1006.7,278.1,0.8,1.7,323.6,0.00,10.1,17.1,"01:16:56",1
"18/05/15","01:30",0.0,13.6,82.3,1006.7,298.1,1.1,2.2,319.1,0.00,10.7,17.2,"01:25:52",1
"18/05/15","01:40",0.0,14.0,83.1,1006.7,301.0,1.6,3.1,322.0,0.00,11.2,17.0,"01:31:52",1
"18/05/15","01:50",0.0,13.9,83.3,1006.9,284.5,1.3,2.5,262.5,0.00,11.2,16.9,"01:43:04",1
"18/05/15","02:00",0.0,13.7,83.6,1006.9,322.4,1.3,2.6,330.7,0.00,11.0,17.0,"01:50:08",1
"18/05/15","02:10",0.0,13.4,83.7,1006.9,324.4,1.2,2.0,336.6,0.00,10.7,16.8,"02:09:12",1
"18/05/15","02:20",0.0,13.0,86.1,1007.1,281.4,1.0,1.6,317.1,0.00,10.8,16.8,"02:12:16",1
"18/05/15","02:30",0.0,12.9,87.2,1007.4,303.5,1.5,2.0,312.9,0.00,10.9,16.7,"02:24:30",1
"18/05/15","02:40",0.0,12.8,87.8,1006.9,285.4,1.3,1.9,296.3,0.00,10.9,16.7,"02:35:20",1
"18/05/15","02:50",0.0,12.6,88.2,1007.4,288.6,1.2,2.0,305.8,0.00,10.7,16.6,"02:43:40",1
"18/05/15","03:00",0.0,12.3,88.5,1007.1,311.1,1.7,2.1,329.4,0.00,10.5,16.6,"02:54:00",1
"18/05/15","03:10",0.0,12.2,89.3,1007.1,287.2,1.3,2.0,322.2,0.00,10.5,16.5,"03:00:26",1
"18/05/15","03:20",0.0,12.0,89.3,1007.1,305.0,1.6,2.5,328.2,0.00,10.3,16.5,"03:15:58",1
"18/05/15","03:30",0.0,11.7,89.3,1007.1,316.9,1.5,2.1,318.7,0.00,10.0,16.5,"03:27:10",1
"18/05/15","03:40",0.0,11.5,90.7,1007.1,296.9,1.3,2.0,311.0,0.00,10.1,16.5,"03:36:10",1
"18/05/15","03:50",0.0,11.4,90.8,1007.4,289.8,1.2,1.9,322.4,0.00,10.0,16.3,"03:43:04",1
"18/05/15","04:00",0.0,11.3,91.7,1007.6,294.4,1.2,1.9,313.5,0.00,10.0,16.2,"03:53:16",1
"18/05/15","04:10",0.0,11.1,91.0,1007.1,290.8,1.3,2.0,319.4,0.00,9.7,16.3,"04:09:28",1
"18/05/15","04:20",0.0,10.9,92.0,1007.6,323.2,1.7,2.1,322.6,0.00,9.7,16.3,"04:18:50",1
"18/05/15","04:30",0.0,10.9,93.5,1006.9,294.1,1.3,2.0,314.4,0.00,9.9,16.2,"04:25:36",1
"18/05/15","04:40",0.0,11.1,92.2,1007.6,282.6,1.3,2.0,314.7,0.00,9.9,16.1,"04:39:24",1
"18/05/15","04:50",0.0,11.1,93.1,1007.1,301.8,1.7,2.5,322.2,0.00,10.1,16.0,"04:43:06",1
"18/05/15","05:00",0.0,11.0,93.3,1007.1,313.3,1.6,2.1,317.7,0.00,10.0,16.0,"04:50:40",1
"18/05/15","05:10",0.0,10.8,92.9,1007.1,311.7,1.3,2.2,314.5,0.00,9.7,15.9,"05:08:40",1
"18/05/15","05:20",0.0,10.5,93.5,1007.1,317.6,2.0,2.6,315.1,0.00,9.5,15.8,"05:12:00",1
"18/05/15","05:30",0.0,10.6,94.6,1007.4,309.3,1.5,1.8,312.6,0.00,9.8,15.8,"05:20:08",1
"18/05/15","05:40",0.0,10.6,94.3,1007.6,300.8,1.3,2.0,318.7,0.00,9.8,15.9,"05:32:40",1
"18/05/15","05:50",0.0,10.8,95.1,1007.8,304.7,1.2,1.8,317.4,0.00,10.1,15.7,"05:41:36",1
"18/05/15","06:00",0.0,11.3,95.1,1007.8,314.7,1.3,1.8,316.3,0.01,10.6,15.7,"05:55:52",1
"18/05/15","06:10",0.0,11.7,94.9,1007.4,310.5,1.3,2.0,317.0,0.02,11.0,15.7,"06:03:44",1
"18/05/15","06:20",0.0,12.3,94.9,1007.8,323.8,1.2,1.8,324.8,0.03,11.5,15.7,"06:10:56",1
"18/05/15","06:30",0.0,13.2,94.4,1008.1,312.4,0.8,1.1,326.0,0.04,12.4,15.8,"06:22:32",1
"18/05/15","06:40",0.0,13.8,92.6,1007.8,1.0,0.1,0.5,332.5,0.06,12.7,15.6,"06:30:24",1
"18/05/15","06:50",0.0,14.7,89.9,1008.3,313.9,0.6,1.2,317.9,0.08,13.1,15.9,"06:48:24",1
"18/05/15","07:00",0.0,15.2,86.7,1008.3,314.5,0.7,1.3,328.4,0.10,13.0,15.7,"06:51:52",1
"18/05/15","07:10",0.0,16.2,82.7,1009.0,325.2,0.3,0.9,318.3,0.12,13.3,15.7,"07:08:48",1
"18/05/15","07:20",0.0,16.5,81.2,1009.0,3.8,0.2,1.0,333.1,0.15,13.3,15.6,"07:12:24",1
"18/05/15","07:30",0.0,17.0,78.7,1009.0,358.2,0.2,0.9,347.3,0.17,13.3,16.0,"07:24:00",1
"18/05/15","07:40",0.0,17.4,74.9,1009.3,178.1,0.2,0.8,103.8,0.19,12.9,16.0,"07:31:04",1
"18/05/15","07:50",0.0,17.9,72.0,1009.0,237.0,0.3,1.0,111.0,0.22,12.8,16.1,"07:41:28",1
"18/05/15","08:00",0.0,18.4,70.3,1008.6,259.0,0.5,1.2,317.1,0.24,12.9,16.3,"07:52:40",1
"18/05/15","08:10",0.0,19.3,67.1,1008.8,244.0,0.3,0.9,106.1,0.27,13.1,16.3,"08:01:36",1
"18/05/15","08:20",0.0,19.5,66.6,1008.8,186.5,0.3,1.3,195.0,0.29,13.2,16.4,"08:18:32",1
"18/05/15","08:30",0.0,20.0,63.3,1008.3,212.1,0.6,1.2,193.1,0.31,12.9,16.7,"08:23:44",1
"18/05/15","08:40",0.0,20.8,62.2,1008.1,33.7,0.3,1.0,28.4,0.34,13.3,16.9,"08:39:20",1
"18/05/15","08:50",0.0,21.0,60.6,1007.8,149.0,0.5,1.2,118.3,0.36,13.1,17.0,"08:46:56",1
"18/05/15","09:00",0.0,21.5,59.5,1007.8,64.6,0.6,1.9,38.3,0.38,13.3,17.2,"08:53:04",1
"18/05/15","09:10",0.0,22.0,56.9,1007.6,182.7,0.7,1.6,203.1,0.39,13.1,17.5,"09:01:12",1
"18/05/15","09:20",0.0,22.8,58.4,1007.4,183.8,0.7,2.2,181.2,0.42,14.3,17.8,"09:19:52",1
"18/05/15","09:30",0.0,22.8,52.7,1006.9,122.8,1.0,2.6,131.2,0.44,12.7,18.0,"09:26:24",1
"18/05/15","09:40",0.0,23.4,51.0,1007.1,126.1,0.8,2.2,127.5,0.46,12.7,18.1,"09:39:04",1
"18/05/15","09:50",0.0,23.9,49.1,1007.6,158.0,0.8,2.0,157.2,0.48,12.6,18.3,"09:45:04",1
"18/05/15","10:00",0.0,24.9,45.5,1007.8,85.7,0.6,1.4,71.4,0.49,12.4,18.7,"09:52:16",1
"18/05/15","10:10",0.0,24.8,45.6,1008.1,83.0,0.8,2.7,128.4,0.51,12.3,18.8,"10:06:48",1
"18/05/15","10:20",0.0,24.7,52.3,1008.1,141.2,1.5,3.2,163.3,0.52,14.3,19.2,"10:13:52",1
"18/05/15","10:30",0.0,25.2,48.9,1007.8,154.9,1.0,1.9,177.5,0.53,13.7,19.5,"10:23:20",1
"18/05/15","10:40",0.0,25.1,46.0,1008.1,189.9,1.1,3.3,211.2,0.54,12.7,19.7,"10:36:16",1
"18/05/15","10:50",0.0,25.2,45.4,1007.8,178.7,2.1,4.7,197.2,0.56,12.6,20.0,"10:47:04",1
"18/05/15","11:00",0.0,25.6,45.2,1007.8,182.4,1.7,3.5,189.4,0.57,12.9,20.2,"10:51:12",1
"18/05/15","11:10",0.0,26.2,42.8,1007.4,167.8,0.8,2.4,138.8,0.58,12.6,20.4,"11:00:16",1
"18/05/15","11:20",0.0,26.6,43.5,1007.8,140.6,1.1,2.6,180.2,0.58,13.2,20.6,"11:18:08",1
"18/05/15","11:30",0.0,26.3,43.3,1008.1,160.1,1.1,2.5,109.5,0.58,12.9,20.7,"11:20:32",1
"18/05/15","11:40",0.0,26.5,39.8,1008.1,172.4,1.0,2.1,190.1,0.59,11.8,21.2,"11:31:36",1
"18/05/15","11:50",0.0,26.8,41.0,1008.1,109.7,1.5,3.4,131.5,0.59,12.5,21.2,"11:41:28",1
"18/05/15","12:00",0.0,27.0,46.4,1007.6,171.4,2.0,4.0,182.5,0.59,14.6,21.5,"11:50:56",1
"18/05/15","12:10",0.0,27.1,44.9,1007.6,134.8,1.3,3.4,128.7,0.59,14.2,21.7,"12:08:00",1
"18/05/15","12:20",0.0,27.2,45.0,1007.4,182.5,2.2,3.7,160.0,0.58,14.3,21.9,"12:10:32",1
"18/05/15","12:30",0.0,27.2,40.4,1007.1,209.7,1.8,3.2,206.1,0.58,12.6,22.2,"12:27:28",1
"18/05/15","12:40",0.0,27.5,42.4,1007.4,199.9,1.7,4.2,192.9,0.58,13.6,22.4,"12:36:48",1
"18/05/15","12:50",0.0,27.4,42.2,1007.1,198.5,2.3,4.7,172.1,0.57,13.5,22.4,"12:42:56",1
"18/05/15","13:00",0.0,27.8,41.9,1007.1,175.1,1.7,3.7,226.1,0.56,13.7,22.5,"12:51:44",1
"18/05/15","13:10",0.0,28.1,41.8,1007.4,181.4,1.7,4.3,195.6,0.55,14.0,22.3,"13:09:28",1
"18/05/15","13:20",0.0,27.8,41.5,1006.9,160.4,2.2,5.5,184.1,0.53,13.6,22.4,"13:16:00",1
"18/05/15","13:30",0.0,28.3,41.2,1006.7,187.6,1.7,3.9,230.0,0.54,13.9,22.4,"13:24:16",1
"18/05/15","13:40",0.0,28.2,41.7,1006.9,174.0,2.1,3.7,184.9,0.53,14.0,22.4,"13:31:04",1
"18/05/15","13:50",0.0,28.6,41.9,1006.7,168.4,1.7,3.7,123.0,0.52,14.4,22.7,"13:49:52",1
"18/05/15","14:00",0.0,28.7,40.9,1006.7,132.4,1.3,2.8,128.1,0.50,14.2,22.6,"13:51:44",1
"18/05/15","14:10",0.0,28.3,39.7,1006.4,154.9,1.8,3.5,121.2,0.49,13.3,22.7,"14:03:44",1
"18/05/15","14:20",0.0,28.8,41.8,1006.7,135.1,1.5,3.6,143.7,0.48,14.6,22.8,"14:12:00",1
"18/05/15","14:30",0.0,28.7,38.8,1006.7,154.6,1.5,4.4,122.8,0.47,13.3,23.0,"14:27:20",1
"18/05/15","14:40",0.0,28.9,38.1,1006.4,163.0,1.8,3.2,153.5,0.45,13.2,23.0,"14:35:20",1
"18/05/15","14:50",0.0,29.1,38.6,1006.0,170.2,1.6,3.6,163.4,0.43,13.6,22.9,"14:44:32",1
"18/05/15","15:00",0.0,29.2,37.0,1005.7,184.9,1.8,4.0,157.5,0.41,13.1,23.2,"14:57:36",1
"18/05/15","15:10",0.0,29.4,38.2,1005.5,135.3,1.8,4.2,117.3,0.37,13.7,23.1,"15:07:04",1
"18/05/15","15:20",0.0,28.9,37.9,1005.0,138.7,2.6,4.5,171.9,0.39,13.2,23.2,"15:13:36",1
"18/05/15","15:30",0.0,29.1,39.8,1005.2,168.2,2.7,5.1,154.2,0.35,14.1,23.4,"15:26:08",1
"18/05/15","15:40",0.0,28.7,40.5,1005.0,168.7,3.4,5.4,138.8,0.33,14.0,23.3,"15:34:00",1
"18/05/15","15:50",0.0,28.8,40.1,1005.0,173.9,3.1,7.0,203.5,0.29,13.9,23.2,"15:43:36",1
"18/05/15","16:00",0.0,28.6,41.4,1004.8,178.3,2.8,4.8,132.2,0.28,14.3,23.2,"15:56:00",1
"18/05/15","16:10",0.0,28.5,40.7,1004.8,180.3,2.7,5.2,185.6,0.25,13.9,23.3,"16:08:16",1
"18/05/15","16:20",0.0,28.5,40.3,1004.5,191.5,3.0,4.8,180.1,0.24,13.8,23.3,"16:11:52",1
"18/05/15","16:30",0.0,28.5,43.1,1004.5,192.1,2.5,4.2,195.2,0.22,14.8,23.2,"16:25:28",1
"18/05/15","16:40",0.0,28.4,42.6,1004.5,187.3,2.3,3.6,209.4,0.18,14.5,23.0,"16:37:12",1
"18/05/15","16:50",0.0,28.8,40.3,1004.3,206.4,1.8,3.2,238.9,0.18,14.0,23.2,"16:47:44",1
"18/05/15","17:00",0.0,29.0,39.2,1004.5,256.7,1.2,3.4,219.4,0.17,13.8,23.0,"16:54:08",1
"18/05/15","17:10",0.0,28.5,38.8,1004.8,228.5,1.7,3.6,230.2,0.13,13.2,23.0,"17:09:20",1
"18/05/15","17:20",0.0,28.3,41.8,1004.5,253.1,1.1,2.8,235.8,0.10,14.1,22.9,"17:18:32",1
"18/05/15","17:30",0.0,28.1,41.8,1004.3,252.6,1.0,3.4,227.1,0.05,14.0,22.8,"17:28:00",1
"18/05/15","17:40",0.0,27.8,43.1,1004.5,279.6,0.8,1.9,275.9,0.04,14.2,22.8,"17:32:40",1
"18/05/15","17:50",0.0,27.6,43.9,1004.5,260.8,0.6,1.8,232.0,0.04,14.3,22.9,"17:43:12",1
"18/05/15","18:00",0.0,27.0,46.5,1004.3,268.8,0.8,2.1,233.6,0.03,14.6,22.7,"17:53:52",1
"18/05/15","18:10",0.0,26.6,47.7,1004.8,270.5,0.8,1.9,228.5,0.02,14.6,22.7,"18:04:32",1
"18/05/15","18:20",0.0,26.1,48.2,1004.8,267.4,0.7,1.3,319.9,0.02,14.3,22.5,"18:10:08",1
"18/05/15","18:30",0.0,25.9,48.1,1005.0,289.0,0.8,1.8,315.5,0.01,14.1,22.4,"18:22:48",1
"18/05/15","18:40",0.0,25.3,51.4,1005.5,322.6,1.5,3.1,341.7,0.00,14.6,22.1,"18:39:36",1
"18/05/15","18:50",0.0,24.6,53.2,1005.5,334.3,1.3,2.6,336.7,0.00,14.5,22.1,"18:46:08",1
"18/05/15","19:00",0.0,24.2,54.9,1005.7,338.0,1.0,1.9,332.1,0.00,14.6,22.0,"18:50:32",1
"18/05/15","19:10",0.0,23.5,58.6,1006.0,325.3,1.6,2.9,328.9,0.00,15.0,21.9,"19:09:52",1
"18/05/15","19:20",0.0,22.9,60.6,1006.0,312.9,1.5,2.2,337.6,0.00,14.9,21.8,"19:10:16",1
"18/05/15","19:30",0.0,22.5,61.4,1006.2,320.5,1.6,2.5,344.1,0.00,14.8,21.5,"19:24:32",1
"18/05/15","19:40",0.0,22.4,62.2,1006.4,322.7,2.0,2.7,333.7,0.00,14.9,21.6,"19:32:32",1
"18/05/15","19:50",0.0,22.0,64.0,1006.4,327.6,2.0,3.7,343.7,0.00,14.9,21.2,"19:45:44",1
"18/05/15","20:00",0.0,21.6,65.3,1006.7,321.5,1.6,2.5,338.5,0.00,14.9,21.3,"19:53:04",1
"18/05/15","20:10",0.0,21.2,66.7,1006.7,288.3,1.0,1.8,324.0,0.00,14.8,21.1,"20:00:32",1
"18/05/15","20:20",0.0,20.9,67.6,1006.9,303.5,1.0,1.3,308.5,0.00,14.7,20.9,"20:10:02",1
"18/05/15","20:30",0.0,20.8,69.0,1007.1,317.9,1.6,2.4,309.9,0.00,14.9,20.8,"20:27:36",1
"18/05/15","20:40",0.0,20.7,70.5,1006.9,334.1,1.8,2.8,338.5,0.00,15.2,20.7,"20:34:32",1
"18/05/15","20:50",0.0,20.4,71.6,1007.4,41.7,0.6,1.6,327.2,0.00,15.1,20.8,"20:40:24",1
"18/05/15","21:00",0.0,19.9,74.7,1007.4,337.2,0.5,1.2,349.4,0.00,15.3,20.6,"20:59:20",1
"18/05/15","21:10",0.0,19.7,73.6,1007.6,316.3,0.8,1.4,338.4,0.00,14.9,20.5,"21:09:44",1
"18/05/15","21:20",0.0,19.2,77.1,1007.6,325.4,1.6,2.2,314.1,0.00,15.1,20.3,"21:19:28",1
"18/05/15","21:30",0.0,19.0,78.5,1007.6,317.6,0.6,1.9,326.6,0.00,15.2,20.4,"21:20:56",1
"18/05/15","21:40",0.0,19.0,77.8,1007.6,314.8,1.2,2.1,320.4,0.00,15.1,20.2,"21:39:20",1
"18/05/15","21:50",0.0,18.9,78.2,1007.8,301.7,1.1,1.8,294.8,0.00,15.1,20.1,"21:49:52",1
"18/05/15","22:00",0.0,18.8,78.0,1007.8,300.9,1.3,2.0,313.5,0.00,14.9,20.0,"21:56:48",1
"18/05/15","22:10",0.0,18.7,78.5,1007.8,308.1,1.1,1.7,288.2,0.00,14.9,19.7,"22:01:20",1
"18/05/15","22:20",0.0,18.6,77.8,1007.8,307.8,1.5,2.0,315.6,0.00,14.7,19.7,"22:14:56",1
"18/05/15","22:30",0.0,18.5,77.7,1008.1,294.4,1.2,2.0,327.1,0.00,14.6,19.6,"22:28:48",1
"18/05/15","22:40",0.0,18.4,78.6,1007.8,306.6,1.3,1.9,312.8,0.00,14.7,19.6,"22:34:40",1
"18/05/15","22:50",0.0,18.2,79.0,1007.8,294.8,1.1,1.7,315.4,0.00,14.5,19.5,"22:44:32",1
"18/05/15","23:00",0.0,17.9,80.1,1008.1,300.7,1.2,1.8,312.7,0.00,14.5,19.3,"22:53:04",1
"18/05/15","23:10",0.0,17.8,81.3,1008.1,295.1,1.2,2.0,305.5,0.00,14.6,19.3,"23:07:20",1
"18/05/15","23:20",0.0,17.6,81.1,1008.1,293.2,1.1,1.7,265.4,0.00,14.4,19.3,"23:17:52",1
"18/05/15","23:30",0.0,17.5,82.0,1008.3,300.2,1.2,2.1,312.9,0.00,14.4,19.3,"23:29:44",1
"18/05/15","23:40",0.0,17.2,82.1,1008.1,293.2,1.0,1.2,292.9,0.00,14.2,19.2,"23:39:04",1
"18/05/15","23:50",0.0,17.1,83.5,1008.1,294.6,1.1,1.4,319.8,0.00,14.3,18.9,"23:42:48",1
"18/05/15","24:00",0.0,17.1,82.8,1007.8,283.4,1.1,1.3,291.0,0.00,14.2,19.0,"23:56:00",1
